QPF
0.01 0.00 0.06 0.02 0.06 0.05 0.04 0.01 0.07 0.13 0.05 0.07 0.07 0.09 0.10 0.18 0.15 0.16 0.02 0.04 0.07 0.02 0.00 0.00 0.00 0.00 0.00 0.04 0.06 0.03 0.03 0.01 0.02 0.03 0.02 0.02 0.00 0.00 0.00 0.00 0.00 0.00 0.00
0.01 0.03 0.02 0.03 0.03 0.08 0.04 0.01 0.00 0.02 0.05 0.02 0.03 0.11 0.27 0.20 0.21 0.33 0.10 0.08 0.08 0.05 0.01 0.01 0.00 0.01 0.02 0.01 0.02 0.07 0.06 0.03 0.02 0.05 0.06 0.06 0.03 0.01 0.00 0.00 0.00 0.00 0.00
0.00 0.02 0.01 0.02 0.02 0.04 0.02 0.00 0.00 0.00 0.00 0.00 0.07 0.02 0.03 0.08 0.14 0.14 0.07 0.17 0.10 0.07 0.06 0.01 0.00 0.02 0.06 0.03 0.01 0.05 0.03 0.02 0.01 0.06 0.02 0.02 0.01 0.02 0.01 0.00 0.00 0.00 0.00
0.00 0.01 0.02 0.00 0.01 0.06 0.03 0.00 0.00 0.00 0.00 0.03 0.08 0.04 0.02 0.06 0.21 0.20 0.12 0.04 0.03 0.03 0.02 0.01 0.01 0.02 0.04 0.07 0.11 0.06 0.01 0.04 0.12 0.07 0.01 0.01 0.01 0.01 0.01 0.03 0.03 0.02 0.00
0.01 0.01 0.02 0.01 0.00 0.01 0.06 0.02 0.00 0.00 0.00 0.00 0.02 0.01 0.01 0.00 0.00 0.15 0.18 0.04 0.03 0.09 0.04 0.08 0.04 0.03 0.03 0.11 0.15 0.31 0.16 0.06 0.06 0.03 0.01 0.01 0.01 0.01 0.01 0.01 0.01 0.02 0.02
0.09 0.05 0.03 0.02 0.02 0.00 0.02 0.03 0.00 0.00 0.00 0.00 0.00 0.01 0.03 0.07 0.09 0.11 0.25 0.05 0.04 0.08 0.12 0.14 0.10 0.04 0.09 0.18 0.18 0.23 0.14 0.04 0.03 0.00 0.00 0.00 0.01 0.01 0.02 0.03 0.02 0.02 0.01
0.08 0.03 0.02 0.02 0.03 0.00 0.00 0.06 0.01 0.01 0.01 0.00 0.05 0.02 0.00 0.03 0.09 0.09 0.03 0.02 0.02 0.04 0.07 0.04 0.01 0.01 0.02 0.07 0.07 0.08 0.04 0.04 0.06 0.00 0.00 0.02 0.03 0.03 0.04 0.02 0.01 0.02 0.02
0.04 0.07 0.02 0.01 0.03 0.05 0.05 0.03 0.00 0.00 0.00 0.00 0.06 0.01 0.01 0.05 0.05 0.10 0.02 0.04 0.05 0.04 0.09 0.06 0.00 0.00 0.00 0.00 0.03 0.04 0.04 0.02 0.02 0.00 0.03 0.04 0.01 0.06 0.04 0.01 0.01 0.03 0.02
0.05 0.15 0.13 0.03 0.05 0.04 0.03 0.05 0.00 0.00 0.00 0.01 0.00 0.00 0.04 0.09 0.08 0.06 0.06 0.03 0.05 0.03 0.02 0.09 0.03 0.00 0.00 0.04 0.07 0.03 0.02 0.05 0.01 0.00 0.00 0.00 0.01 0.03 0.04 0.01 0.01 0.03 0.01
0.02 0.03 0.06 0.03 0.03 0.05 0.05 0.04 0.00 0.00 0.00 0.00 0.00 0.00 0.06 0.19 0.23 0.11 0.07 0.00 0.00 0.00 0.02 0.14 0.08 0.13 0.09 0.03 0.07 0.18 0.12 0.11 0.02 0.00 0.02 0.00 0.02 0.07 0.07 0.03 0.03 0.08 0.03
0.02 0.01 0.00 0.00 0.01 0.05 0.06 0.04 0.01 0.00 0.00 0.00 0.02 0.03 0.03 0.10 0.14 0.06 0.05 0.01 0.01 0.01 0.01 0.05 0.05 0.13 0.08 0.02 0.00 0.09 0.11 0.06 0.02 0.06 0.10 0.13 0.09 0.05 0.04 0.03 0.06 0.05 0.06
0.05 0.01 0.01 0.00 0.00 0.04 0.12 0.01 0.00 0.00 0.00 0.01 0.04 0.03 0.11 0.17 0.12 0.11 0.03 0.00 0.00 0.01 0.00 0.00 0.01 0.01 0.00 0.00 0.00 0.03 0.07 0.04 0.01 0.01 0.01 0.12 0.06 0.12 0.06 0.06 0.05 0.06 0.03
0.06 0.01 0.00 0.01 0.00 0.06 0.10 0.01 0.01 0.00 0.00 0.01 0.01 0.08 0.09 0.04 0.03 0.03 0.01 0.00 0.01 0.04 0.08 0.02 0.04 0.02 0.00 0.00 0.00 0.01 0.03 0.00 0.00 0.00 0.06 0.08 0.06 0.04 0.05 0.10 0.10 0.07 0.08
0.02 0.02 0.01 0.01 0.02 0.13 0.13 0.18 0.20 0.05 0.06 0.00 0.00 0.05 0.15 0.08 0.03 0.03 0.00 0.00 0.00 0.01 0.02 0.04 0.15 0.14 0.08 0.01 0.00 0.01 0.08 0.03 0.00 0.01 0.01 0.01 0.01 0.06 0.09 0.08 0.08 0.07 0.07
0.01 0.01 0.01 0.01 0.02 0.14 0.17 0.23 0.15 0.01 0.00 0.00 0.03 0.06 0.09 0.12 0.06 0.06 0.06 0.03 0.03 0.01 0.04 0.01 0.09 0.18 0.14 0.01 0.02 0.06 0.15 0.05 0.01 0.02 0.04 0.03 0.02 0.05 0.07 0.04 0.02 0.02 0.01
0.01 0.00 0.01 0.01 0.02 0.15 0.29 0.16 0.08 0.02 0.05 0.09 0.10 0.07 0.05 0.05 0.01 0.05 0.09 0.06 0.02 0.01 0.01 0.00 0.01 0.03 0.03 0.06 0.09 0.16 0.17 0.08 0.05 0.05 0.05 0.04 0.02 0.03 0.02 0.01 0.00 0.00 0.00
0.00 0.00 0.04 0.07 0.08 0.15 0.13 0.23 0.27 0.25 0.13 0.04 0.05 0.05 0.03 0.01 0.03 0.07 0.03 0.03 0.04 0.01 0.03 0.00 0.05 0.06 0.09 0.13 0.13 0.13 0.07 0.06 0.03 0.02 0.01 0.02 0.01 0.00 0.00 0.00 0.00 0.00 0.00
0.00 0.00 0.01 0.03 0.03 0.04 0.09 0.12 0.05 0.01 0.01 0.01 0.01 0.01 0.01 0.00 0.04 0.09 0.05 0.03 0.02 0.00 0.00 0.01 0.06 0.07 0.05 0.14 0.07 0.02 0.04 0.08 0.02 0.00 0.00 0.00 0.00 0.00 0.00 0.00 0.00 0.00 0.02
0.00 0.00 0.01 0.02 0.02 0.02 0.04 0.03 0.00 0.00 0.00 0.00 0.00 0.01 0.00 0.01 0.01 0.01 0.02 0.01 0.03 0.05 0.05 0.01 0.03 0.09 0.07 0.09 0.05 0.01 0.00 0.02 0.02 0.01 0.01 0.01 0.00 0.00 0.01 0.02 0.02 0.02 0.00
0.00 0.00 0.00 0.00 0.00 0.00 0.00 0.00 0.00 0.00 0.00 0.00 0.00 0.00 0.00 0.00 0.00 0.00 0.00 0.01 0.00 0.02 0.04 0.06 0.07 0.05 0.00 0.02 0.04 0.02 0.00 0.00 0.01 0.02 0.03 0.02 0.02 0.02 0.02 0.02 0.01 0.00 0.00
0.00 0.00 0.00 0.00 0.00 0.00 0.00 0.00 0.00 0.00 0.00 0.00 0.00 0.00 0.00 0.00 0.00 0.00 0.00 0.00 0.00 0.00 0.01 0.01 0.00 0.03 0.07 0.08 0.02 0.02 0.00 0.00 0.00 0.01 0.01 0.00 0.00 0.00 0.00 0.00 0.00 0.00 0.00
0.01 0.01 0.01 0.00 0.00 0.00 0.00 0.00 0.00 0.00 0.00 0.00 0.00 0.00 0.00 0.00 0.00 0.00 0.00 0.00 0.00 0.00 0.01 0.03 0.06 0.07 0.07 0.05 0.07 0.04 0.00 0.00 0.00 0.00 0.00 0.00 0.00 0.00 0.00 0.00 0.00 0.00 0.00
0.00 0.00 0.00 0.00 0.00 0.00 0.00 0.00 0.00 0.00 0.00 0.00 0.00 0.00 0.00 0.00 0.00 0.00 0.00 0.00 0.00 0.00 0.03 0.06 0.06 0.06 0.04 0.05 0.04 0.02 0.00 0.00 0.00 0.00 0.00 0.00 0.00 0.00 0.00 0.00 0.00 0.00 0.00
0.00 0.00 0.00 0.00 0.00 0.00 0.00 0.00 0.00 0.00 0.00 0.00 0.00 0.00 0.00 0.00 0.00 0.00 0.00 0.00 0.00 0.00 0.00 0.01 0.02 0.01 0.01 0.00 0.00 0.00 0.00 0.00 0.00 0.00 0.00 0.00 0.00 0.00 0.00 0.00 0.00 0.00 0.00
0.00 0.00 0.00 0.00 0.00 0.00 0.00 0.00 0.00 0.00 0.00 0.00 0.00 0.00 0.00 0.00 0.00 0.00 0.00 0.00 0.00 0.00 0.00 0.00 0.00 0.00 0.00 0.00 0.00 0.00 0.00 0.00 0.00 0.00 0.00 0.00 0.00 0.00 0.00 0.00 0.00 0.00 0.00
0.00 0.00 0.00 0.00 0.00 0.00 0.00 0.00 0.00 0.00 0.00 0.00 0.00 0.00 0.00 0.00 0.00 0.00 0.00 0.00 0.00 0.00 0.00 0.00 0.00 0.00 0.00 0.00 0.00 0.00 0.00 0.00 0.00 0.00 0.00 0.00 0.00 0.00 0.00 0.00 0.00 0.00 0.00
MSLP
1016.22 1016.26 1016.50 1016.46 1016.40 1016.38 1016.57 1016.68 1016.88 1017.14 1017.23 1017.37 1017.47 1017.65 1017.75 1018.15 1018.77 1018.86 1019.49 1019.28 1019.47 1019.90 1020.25 1020.48 1020.75 1021.00 1021.27 1021.52 1021.69 1021.80 1021.97 1022.16 1022.36 1022.49 1022.69 1022.95 1023.11 1023.28 1023.52 1023.77 1023.96 1024.22 1024.45
1015.81 1016.12 1016.26 1016.44 1016.46 1016.36 1016.67 1016.59 1016.74 1016.98 1017.08 1017.23 1017.36 1017.44 1017.57 1017.74 1018.12 1019.01 1019.16 1018.84 1019.35 1019.68 1020.00 1020.28 1020.53 1020.74 1020.96 1021.24 1021.46 1021.66 1021.74 1021.92 1022.09 1022.21 1022.39 1022.69 1022.86 1023.18 1023.37 1023.54 1023.83 1024.01 1024.23
1015.49 1015.81 1015.98 1016.40 1016.28 1016.20 1016.38 1016.57 1016.60 1016.82 1017.08 1017.05 1017.27 1017.17 1017.32 1017.09 1017.79 1018.19 1018.33 1019.06 1018.96 1019.26 1019.75 1020.08 1020.16 1020.44 1020.66 1020.86 1021.08 1021.38 1021.55 1021.78 1021.89 1022.14 1022.26 1022.31 1022.58 1022.86 1023.19 1023.33 1023.56 1023.82 1023.99
1015.01 1015.43 1015.91 1016.05 1015.90 1016.04 1016.35 1016.66 1016.80 1016.93 1017.17 1017.12 1017.14 1016.97 1017.10 1017.22 1017.61 1018.01 1018.07 1018.42 1018.64 1019.16 1019.45 1019.51 1019.74 1020.08 1020.33 1020.39 1020.66 1021.06 1021.35 1021.52 1021.69 1021.91 1022.01 1022.13 1022.33 1022.51 1022.81 1023.03 1023.26 1023.57 1023.83
1014.55 1014.85 1015.28 1015.57 1015.54 1015.91 1016.17 1016.57 1016.77 1016.95 1017.17 1017.06 1017.12 1016.88 1016.92 1017.03 1017.17 1017.54 1017.92 1018.28 1018.50 1018.90 1019.13 1019.18 1019.58 1019.71 1020.02 1020.08 1020.24 1020.69 1020.99 1021.05 1021.31 1021.48 1021.69 1021.85 1022.04 1022.20 1022.46 1022.74 1022.95 1023.20 1023.44
1014.00 1014.53 1014.86 1015.08 1015.34 1015.84 1016.13 1016.32 1016.55 1016.87 1017.06 1017.07 1016.96 1016.87 1016.85 1016.97 1016.96 1017.47 1017.82 1017.87 1018.16 1018.35 1018.61 1018.80 1019.17 1019.38 1019.60 1019.53 1019.94 1020.25 1020.55 1020.77 1020.94 1021.07 1021.21 1021.33 1021.49 1021.73 1022.13 1022.48 1022.70 1022.82 1023.04
1013.70 1014.04 1014.37 1014.65 1014.93 1015.52 1015.93 1016.05 1016.42 1016.86 1016.98 1016.96 1017.04 1017.19 1017.08 1016.94 1017.02 1017.19 1017.36 1017.54 1017.78 1017.98 1018.19 1018.51 1018.73 1018.95 1019.15 1019.13 1019.39 1019.75 1019.91 1020.17 1020.51 1020.64 1020.82 1021.05 1021.13 1021.31 1021.66 1021.87 1022.19 1022.40 1022.67
1013.22 1013.73 1014.00 1014.41 1014.66 1015.18 1015.66 1015.90 1016.21 1016.73 1016.81 1016.71 1016.93 1017.21 1017.52 1017.44 1017.16 1017.12 1017.31 1017.64 1017.87 1017.82 1018.01 1018.07 1018.28 1018.67 1018.81 1018.92 1019.15 1019.41 1019.48 1019.77 1019.98 1020.20 1020.45 1020.62 1020.77 1020.86 1021.06 1021.28 1021.74 1022.05 1022.25
1012.94 1013.18 1013.58 1013.99 1014.29 1014.71 1015.14 1015.37 1015.72 1016.17 1016.49 1016.57 1016.23 1016.73 1017.36 1017.71 1017.63 1017.35 1017.34 1017.46 1017.55 1017.79 1017.77 1017.73 1017.97 1018.39 1018.75 1018.85 1018.93 1019.00 1019.09 1019.30 1019.57 1019.74 1019.94 1020.27 1020.48 1020.59 1020.64 1020.93 1021.30 1021.57 1021.89
1012.63 1012.89 1013.06 1013.41 1013.99 1014.34 1014.73 1014.98 1015.20 1015.59 1015.90 1016.38 1016.43 1016.32 1016.69 1017.32 1018.23 1018.54 1017.69 1017.44 1017.27 1017.44 1017.62 1017.79 1017.78 1018.06 1018.25 1018.45 1018.55 1018.58 1018.52 1018.85 1019.14 1019.35 1019.50 1019.76 1020.06 1020.16 1020.24 1020.61 1021.00 1021.34 1021.57
1012.16 1012.36 1012.51 1013.00 1013.62 1013.97 1014.25 1014.72 1015.03 1015.22 1015.47 1015.90 1016.11 1016.41 1016.78 1017.11 1017.92 1018.73 1018.37 1017.67 1017.45 1017.17 1017.18 1017.36 1017.47 1017.62 1017.70 1017.97 1018.07 1018.08 1018.11 1018.38 1018.75 1018.91 1019.05 1019.32 1019.61 1019.89 1020.14 1020.42 1020.74 1020.82 1021.08
1011.71 1012.06 1012.20 1012.65 1013.11 1013.54 1013.89 1014.30 1014.57 1014.82 1015.23 1015.51 1015.89 1016.31 1016.53 1017.29 1018.05 1018.31 1018.14 1017.59 1017.38 1017.09 1016.87 1016.95 1017.20 1017.16 1017.25 1017.38 1017.59 1017.69 1017.77 1017.97 1018.27 1018.56 1018.84 1019.11 1019.25 1019.63 1019.80 1019.97 1020.18 1020.36 1020.60
1011.65 1011.91 1012.11 1012.36 1012.73 1013.06 1013.47 1013.85 1014.13 1014.40 1014.75 1015.11 1015.48 1016.08 1015.97 1017.03 1017.78 1017.62 1017.36 1017.20 1017.20 1016.96 1016.86 1016.80 1016.78 1016.93 1016.99 1017.20 1017.39 1017.41 1017.49 1017.67 1017.89 1018.29 1018.53 1018.75 1018.96 1019.16 1019.51 1019.63 1019.73 1020.00 1020.13
1011.58 1011.74 1011.93 1012.15 1012.46 1012.80 1013.18 1013.41 1013.65 1014.13 1014.56 1014.89 1015.24 1015.62 1016.04 1016.79 1017.36 1017.19 1016.57 1016.76 1017.05 1016.98 1016.89 1016.67 1016.52 1016.64 1016.90 1016.98 1017.00 1017.11 1017.28 1017.48 1017.86 1018.10 1018.28 1018.47 1018.77 1018.97 1019.09 1019.33 1019.56 1019.88 1019.99
1011.47 1011.67 1011.83 1012.07 1012.39 1012.65 1012.81 1012.82 1013.33 1013.87 1014.23 1014.61 1015.03 1015.39 1015.90 1016.57 1017.09 1016.98 1016.56 1016.14 1016.60 1017.12 1016.99 1016.73 1016.85 1016.74 1017.06 1016.96 1016.68 1016.81 1017.09 1017.34 1017.79 1018.02 1018.14 1018.32 1018.56 1018.77 1018.99 1019.23 1019.46 1019.81 1020.13
1011.59 1011.66 1011.74 1011.91 1012.17 1012.37 1012.50 1012.81 1013.07 1013.55 1014.06 1014.49 1015.03 1015.43 1015.94 1016.49 1016.95 1016.39 1016.26 1016.16 1015.80 1016.41 1016.95 1016.76 1016.89 1016.93 1016.58 1016.73 1016.60 1017.02 1017.29 1017.56 1017.94 1018.03 1018.22 1018.41 1018.59 1018.89 1019.15 1019.32 1019.71 1020.00 1020.34
1012.03 1012.06 1012.00 1012.15 1012.28 1012.32 1012.38 1012.81 1013.06 1013.49 1014.06 1014.82 1015.21 1015.50 1015.93 1016.43 1016.40 1016.09 1015.90 1015.90 1015.96 1015.79 1016.61 1016.83 1016.90 1016.89 1016.95 1017.02 1017.33 1017.51 1017.77 1018.00 1018.32 1018.36 1018.42 1018.73 1018.86 1019.07 1019.36 1019.66 1020.04 1020.33 1020.73
1012.50 1012.60 1012.49 1012.69 1012.81 1012.91 1012.94 1013.32 1013.71 1014.20 1014.66 1015.07 1015.32 1015.48 1015.70 1015.63 1016.01 1016.34 1016.18 1016.10 1015.71 1015.42 1016.12 1016.74 1016.85 1017.09 1017.26 1017.58 1017.65 1017.89 1018.19 1018.54 1018.41 1018.73 1018.84 1019.01 1019.18 1019.51 1019.83 1020.18 1020.66 1021.03 1021.40
1012.98 1013.08 1013.22 1013.45 1013.58 1013.88 1013.96 1014.31 1014.69 1015.11 1015.54 1015.84 1015.93 1015.95 1016.17 1015.84 1016.25 1016.44 1016.66 1016.27 1015.98 1016.09 1016.06 1016.48 1017.03 1017.43 1017.84 1018.03 1018.15 1018.09 1018.57 1018.81 1018.91 1019.06 1019.31 1019.59 1019.91 1020.08 1020.41 1020.75 1021.21 1021.56 1021.90
1013.53 1013.70 1013.96 1014.22 1014.43 1014.74 1014.97 1015.17 1015.30 1015.71 1016.16 1016.50 1016.60 1016.68 1016.71 1016.77 1016.81 1016.89 1016.99 1017.01 1016.90 1017.00 1016.90 1017.05 1017.81 1017.96 1018.02 1018.32 1018.45 1018.64 1019.14 1019.26 1019.51 1019.47 1019.80 1019.97 1020.27 1020.66 1020.83 1021.24 1021.60 1021.80 1022.13
1014.17 1014.44 1014.76 1015.01 1015.25 1015.47 1015.71 1015.85 1016.02 1016.37 1016.62 1016.81 1016.97 1017.13 1017.32 1017.49 1017.62 1017.55 1017.54 1017.72 1017.73 1017.63 1017.84 1017.67 1018.09 1018.33 1018.46 1018.58 1018.85 1018.81 1019.08 1019.42 1019.82 1019.90 1020.42 1020.58 1020.76 1021.21 1021.40 1021.64 1021.61 1021.88 1022.24
1014.85 1015.17 1015.58 1015.99 1016.21 1016.40 1016.37 1016.36 1016.51 1016.91 1017.28 1017.55 1017.96 1018.21 1018.21 1018.23 1018.22 1018.26 1018.34 1018.31 1018.30 1018.04 1018.06 1018.03 1018.44 1018.83 1019.28 1019.33 1019.16 1019.29 1019.20 1019.75 1020.16 1020.08 1020.34 1020.86 1020.85 1021.41 1021.65 1021.77 1021.81 1022.05 1022.13
1015.54 1016.16 1016.61 1016.91 1017.30 1017.23 1016.94 1016.96 1017.10 1017.42 1017.76 1018.10 1018.32 1018.50 1018.49 1018.69 1018.81 1018.95 1018.99 1018.81 1018.76 1018.47 1018.29 1018.21 1019.13 1019.71 1020.18 1020.17 1019.79 1019.53 1019.82 1020.08 1020.49 1020.57 1020.43 1021.32 1021.24 1021.49 1021.64 1021.92 1022.08 1022.21 1022.24
1016.37 1016.85 1017.43 1017.75 1017.86 1017.88 1017.33 1017.40 1017.73 1018.06 1018.47 1018.72 1018.77 1018.89 1019.00 1019.00 1019.03 1019.17 1019.31 1019.25 1019.39 1019.42 1019.52 1019.41 1019.85 1020.18 1020.22 1020.23 1020.03 1019.96 1020.18 1020.43 1020.81 1021.07 1020.99 1021.66 1021.78 1022.07 1022.05 1021.83 1021.73 1021.92 1022.00
1017.38 1017.93 1018.37 1018.37 1018.32 1018.41 1018.06 1017.94 1018.15 1018.60 1019.15 1019.66 1019.72 1019.54 1019.36 1019.33 1019.48 1019.53 1019.58 1019.92 1020.12 1020.36 1020.42 1020.31 1020.31 1020.25 1020.25 1020.28 1020.26 1020.22 1020.77 1020.84 1021.25 1021.66 1022.05 1022.07 1021.93 1021.92 1021.74 1021.63 1021.53 1021.53 1021.63
1018.16 1018.74 1019.10 1019.43 1019.29 1019.09 1018.71 1018.65 1018.70 1019.06 1019.47 1019.92 1020.30 1020.40 1020.26 1020.09 1019.98 1020.13 1020.32 1020.35 1020.64 1020.92 1020.85 1020.64 1020.64 1020.77 1020.87 1020.90 1020.93 1021.12 1021.45 1021.87 1022.16 1021.91 1022.18 1022.20 1022.25 1022.07 1021.89 1021.39 1021.15 1021.45 1021.55
Thickness
5743 5742 5740 5743 5746 5748 5750 5754 5754 5754 5755 5755 5756 5757 5759 5755 5749 5744 5746 5750 5749 5746 5743 5741 5739 5738 5736 5734 5733 5731 5729 5727 5726 5723 5721 5719 5718 5716 5712 5708 5705 5701 5698
5741 5739 5738 5739 5740 5743 5744 5750 5751 5753 5754 5755 5754 5756 5758 5756 5751 5745 5746 5751 5747 5745 5742 5739 5738 5737 5737 5735 5732 5730 5728 5727 5726 5724 5723 5721 5719 5716 5713 5710 5706 5703 5700
5738 5736 5736 5734 5737 5739 5738 5743 5747 5749 5751 5753 5754 5755 5756 5746 5751 5751 5743 5746 5748 5746 5742 5738 5737 5737 5736 5735 5733 5729 5727 5726 5726 5723 5723 5723 5720 5718 5714 5712 5709 5705 5703
5735 5734 5732 5731 5735 5736 5734 5737 5742 5743 5745 5749 5750 5754 5756 5753 5750 5750 5750 5748 5749 5744 5741 5740 5739 5737 5736 5736 5734 5730 5727 5726 5725 5724 5723 5723 5720 5719 5716 5713 5710 5706 5703
5731 5732 5730 5730 5733 5733 5734 5733 5736 5739 5740 5745 5747 5751 5755 5755 5753 5750 5748 5747 5747 5744 5740 5740 5738 5736 5735 5734 5732 5728 5726 5727 5726 5725 5724 5723 5721 5719 5717 5713 5711 5708 5705
5726 5727 5727 5729 5731 5730 5729 5730 5731 5733 5737 5741 5745 5746 5751 5753 5753 5752 5749 5748 5748 5746 5744 5742 5738 5736 5734 5733 5731 5730 5728 5727 5726 5725 5725 5724 5722 5720 5717 5712 5709 5708 5705
5722 5722 5726 5728 5728 5727 5726 5728 5727 5728 5732 5737 5737 5739 5744 5748 5750 5751 5750 5749 5748 5746 5746 5743 5740 5738 5734 5732 5732 5731 5729 5728 5726 5725 5724 5722 5722 5721 5717 5715 5710 5708 5705
5719 5720 5723 5724 5727 5725 5724 5724 5723 5723 5728 5734 5730 5732 5727 5735 5744 5747 5746 5745 5744 5744 5744 5742 5741 5737 5734 5733 5731 5730 5729 5728 5727 5725 5723 5722 5721 5721 5719 5716 5710 5706 5704
5714 5717 5719 5721 5724 5725 5724 5725 5723 5723 5724 5730 5738 5732 5722 5720 5731 5739 5740 5741 5743 5742 5742 5742 5739 5735 5732 5729 5728 5729 5728 5726 5725 5725 5723 5721 5720 5719 5719 5715 5710 5707 5704
5711 5713 5716 5718 5721 5723 5724 5725 5726 5726 5727 5724 5730 5737 5736 5731 5716 5714 5730 5736 5741 5740 5740 5737 5736 5733 5731 5729 5728 5728 5727 5725 5724 5723 5723 5721 5718 5717 5715 5711 5708 5705 5701
5712 5712 5717 5718 5719 5720 5722 5722 5724 5725 5726 5724 5725 5726 5729 5728 5723 5712 5712 5723 5733 5738 5738 5737 5734 5733 5732 5731 5730 5730 5729 5727 5725 5724 5722 5718 5715 5712 5710 5707 5704 5702 5698
5715 5715 5716 5717 5718 5718 5718 5721 5723 5724 5723 5722 5724 5725 5724 5719 5714 5713 5712 5720 5723 5731 5736 5735 5733 5733 5733 5732 5729 5729 5728 5727 5725 5723 5720 5716 5715 5711 5708 5706 5703 5701 5697
5715 5715 5716 5717 5716 5716 5718 5721 5722 5723 5722 5720 5723 5722 5725 5719 5715 5717 5717 5719 5721 5727 5729 5730 5730 5729 5729 5727 5725 5725 5725 5724 5723 5719 5717 5714 5712 5709 5705 5703 5700 5697 5694
5715 5716 5716 5716 5716 5717 5717 5720 5721 5720 5719 5719 5721 5721 5720 5716 5715 5716 5722 5720 5716 5719 5722 5724 5728 5726 5723 5722 5722 5722 5721 5718 5715 5714 5713 5710 5707 5704 5701 5698 5696 5691 5690
5717 5716 5717 5716 5715 5716 5717 5720 5719 5718 5718 5718 5718 5718 5717 5713 5709 5714 5719 5724 5717 5707 5711 5720 5718 5720 5715 5716 5719 5718 5715 5710 5708 5708 5707 5705 5702 5699 5696 5693 5690 5686 5683
5716 5716 5716 5716 5715 5716 5718 5717 5718 5717 5716 5715 5714 5713 5711 5708 5707 5714 5717 5718 5721 5712 5705 5715 5713 5715 5714 5711 5714 5712 5708 5703 5701 5702 5700 5698 5695 5691 5688 5686 5681 5679 5675
5713 5713 5713 5712 5712 5714 5716 5716 5716 5714 5712 5707 5707 5707 5706 5705 5707 5711 5713 5714 5712 5716 5704 5706 5707 5709 5707 5705 5702 5701 5699 5697 5693 5692 5691 5688 5685 5682 5679 5676 5672 5669 5664
5710 5709 5707 5706 5706 5708 5711 5709 5708 5706 5702 5700 5701 5703 5703 5706 5703 5702 5704 5707 5709 5712 5705 5698 5701 5699 5698 5695 5693 5692 5689 5685 5686 5682 5680 5677 5674 5670 5667 5664 5659 5657 5652
5705 5705 5704 5702 5699 5700 5701 5700 5698 5695 5693 5692 5693 5695 5695 5698 5695 5696 5694 5699 5701 5700 5699 5695 5690 5689 5685 5683 5680 5681 5677 5676 5672 5670 5667 5663 5658 5657 5654 5652 5648 5645 5641
5701 5699 5697 5696 5696 5694 5693 5692 5691 5688 5685 5684 5685 5685 5685 5685 5685 5685 5685 5685 5686 5684 5686 5683 5676 5676 5676 5674 5671 5667 5663 5662 5659 5658 5654 5652 5648 5645 5645 5641 5638 5637 5633
5696 5693 5690 5689 5687 5686 5683 5682 5681 5679 5678 5677 5676 5675 5675 5674 5672 5673 5672 5671 5671 5672 5672 5673 5668 5667 5665 5663 5659 5658 5655 5652 5648 5647 5641 5640 5638 5634 5633 5630 5629 5627 5622
5689 5686 5682 5678 5676 5675 5675 5676 5675 5671 5668 5665 5662 5661 5661 5661 5662 5661 5660 5660 5660 5661 5663 5663 5659 5653 5648 5649 5649 5646 5648 5642 5638 5638 5635 5630 5630 5626 5622 5620 5618 5615 5613
5680 5675 5671 5668 5664 5664 5667 5668 5667 5663 5661 5658 5656 5654 5654 5652 5651 5649 5647 5649 5649 5651 5653 5653 5644 5639 5635 5634 5635 5636 5633 5631 5626 5626 5626 5617 5618 5614 5610 5606 5603 5600 5598
5671 5666 5661 5657 5655 5655 5658 5659 5655 5653 5649 5647 5647 5646 5644 5643 5642 5640 5638 5637 5635 5635 5634 5634 5630 5626 5625 5625 5626 5626 5623 5620 5616 5613 5611 5605 5602 5599 5597 5595 5593 5589 5587
5659 5655 5650 5649 5648 5646 5648 5650 5647 5642 5636 5631 5631 5633 5634 5634 5632 5630 5628 5625 5622 5618 5617 5617 5617 5617 5617 5615 5615 5614 5607 5606 5601 5596 5590 5587 5586 5584 5582 5583 5582 5579 5576
5649 5642 5639 5636 5637 5638 5639 5640 5638 5634 5630 5625 5620 5618 5618 5618 5618 5617 5615 5613 5612 5607 5606 5607 5606 5604 5603 5601 5598 5594 5589 5582 5578 5581 5575 5571 5569 5569 5567 5568 5567 5562 5561